Flag for Switzerland Weather past 2 weeks in Uster, Zurich, Switzerland

Now
41 °F

Quite cool.


Feels Like: 36 °F
Forecast: 33 / 47 °F
Wind: 7 mph from Southwest

Location: Zurich Town / Ville.

Current Time: Dec 21, 2014 at 1:03:46 AM

Latest Report: Dec 21, 2014 at 12:00 AM


Visibility: N/A

Pressure: 30.51 "Hg

Humidity: 61%

Dew point: 28 °F

Location of UsterLocation

Historic Weather in Uster — Graph

°F

Uster temperature yesterday

Maximum temperature yesterday: 48 °F (at 1:00 AM)
Minimum temperature yesterday: 39 °F (at 6:00 PM)
Average temperature yesterday: 43 °F

Past Weeks' High & Low Weather Summary

 TemperatureHumidityPressure
High54 °F (Dec 19, 2:00 PM)100% (Dec 9, 2:00 AM)30.50 "Hg (Dec 9, 2:00 AM)
Low30 °F (Dec 10, 2:00 AM)43% (Dec 13, 1:00 PM)29.87 "Hg (Dec 12, 8:00 PM)
Average41 °F81%30.15 "Hg
* Reported Dec 5 11:00 PM — Dec 20 11:00 PM, Uster, Weather by CustomWeather, © 2014

Note: Actual official high and low records may vary slightly from our data, if they occured in-between our weather recording intervals... More about our weather records

Advertising

Uster weather history for previous 24 hours

 ConditionsComfort  
Time TempWeatherWind HumidityBarometerVisibility
11:00 PM
Dec 20
40 °FQuite cool.7 mph62%30.50 "HgN/A
9:00 PM40 °FQuite cool.9 mph59%30.46 "HgN/A
8:00 PM40 °FQuite cool.13 mph59%30.45 "HgN/A
7:00 PM40 °FPassing clouds.15 mph61%30.45 "HgN/A
6:00 PM39 °FChilly.14 mph65%30.42 "HgN/A
5:00 PM39 °FChilly.16 mph67%30.39 "HgN/A
4:00 PM40 °FChilly.14 mph70%30.36 "HgN/A
3:00 PM42 °FQuite cool.13 mph69%30.34 "HgN/A
2:00 PM43 °FQuite cool.9 mph73%30.34 "HgN/A
1:00 PM44 °FQuite cool.8 mph71%30.34 "HgN/A
12:00 PM43 °FQuite cool.10 mph78%30.40 "HgN/A
11:00 AM40 °FQuite cool.8 mph81%30.41 "HgN/A
10:00 AM40 °FChilly.7 mph85%30.40 "HgN/A
9:00 AM40 °FQuite cool.6 mph89%30.38 "HgN/A
8:00 AM41 °FQuite cool.9 mph89%30.37 "HgN/A
7:00 AM42 °FQuite cool.6 mph91%30.35 "HgN/A
6:00 AM45 °FCool.5 mph96%30.34 "HgN/A
5:00 AM46 °FCool.8 mph93%30.32 "HgN/A
4:00 AM47 °FCool.8 mph93%30.30 "HgN/A
3:00 AM47 °FCool.12 mph90%30.29 "HgN/A
2:00 AM47 °FCool.17 mph91%30.28 "HgN/A
1:00 AM48 °FCool.16 mph87%30.27 "HgN/A
Weather by CustomWeather, © 2014

See weather overviewHow to use our weather pages